WMT411 LFLL-LATI

Flight info

Callsign WMT411
Flight time 1h 41m
Altitude 23000
Route RISOR T47 GEMLA DCT VANAS DCT MEDAM DCT NITAM DCT MOGBO/N0440F350 DCT GEN DCT KALMO/N0442F370 DCT GIPIX DCT ERDON DCT XOLTA DCT PETAK
Aircraft A321/M-SDE1E2E3FGIJ1J4RWXY/LB1

Departure

Time 2026-05-04 04:10
Airport Lyon Saint-Exupéry Airport (LFLL)

Arrival

Time 2026-05-04 05:51
Airport Tirana International Airport Mother Teresa (LATI)
Time Latitude Longitude Altitude Speed Heading
2026-05-04 03:41 45.72181 5.08207 791 ft 0 kts 258°
2026-05-04 03:55 45.72181 5.08208 791 ft 0 kts 258°
2026-05-04 03:58 45.72183 5.08220 791 ft 4 kts 274°
2026-05-04 03:58 45.72172 5.08247 791 ft 4 kts 306°
2026-05-04 03:59 45.72166 5.08260 791 ft 1 kts 297°
2026-05-04 03:59 45.72165 5.08261 791 ft 1 kts 297°
2026-05-04 04:02 45.72179 5.08244 791 ft 5 kts 341°
2026-05-04 04:03 45.72238 5.08260 791 ft 10 kts 14°
2026-05-04 04:03 45.72307 5.08291 790 ft 11 kts 44°
2026-05-04 04:03 45.72347 5.08389 790 ft 12 kts 41°
2026-05-04 04:03 45.72431 5.08401 789 ft 13 kts 356°
2026-05-04 04:04 45.72534 5.08390 787 ft 16 kts 355°
2026-05-04 04:04 45.72654 5.08375 786 ft 18 kts 355°
2026-05-04 04:04 45.72787 5.08359 784 ft 20 kts 355°
2026-05-04 04:04 45.72935 5.08341 782 ft 22 kts 355°
2026-05-04 04:05 45.73093 5.08322 781 ft 24 kts 355°
2026-05-04 04:05 45.73263 5.08303 778 ft 25 kts 355°
2026-05-04 04:05 45.73430 5.08283 776 ft 21 kts 355°
2026-05-04 04:05 45.73580 5.08265 775 ft 21 kts 355°
2026-05-04 04:06 45.73667 5.08265 775 ft 19 kts 17°
2026-05-04 04:06 45.73722 5.08405 775 ft 16 kts 98°
2026-05-04 04:06 45.73703 5.08515 775 ft 10 kts 106°
2026-05-04 04:06 45.73697 5.08545 775 ft 0 kts 106°
2026-05-04 04:09 45.73695 5.08556 775 ft 5 kts 106°
2026-05-04 04:09 45.73663 5.08662 775 ft 18 kts 131°
2026-05-04 04:09 45.73424 5.08751 780 ft 69 kts 175°
2026-05-04 04:09 45.72713 5.08841 786 ft 134 kts 175°
2026-05-04 04:10 45.71617 5.08978 862 ft 175 kts 175°
2026-05-04 04:10 45.70430 5.09103 1648 ft 169 kts 175°
2026-05-04 04:10 45.69245 5.09240 2269 ft 177 kts 176°
2026-05-04 04:10 45.67945 5.09397 2619 ft 197 kts 177°
2026-05-04 04:11 45.66557 5.09567 3172 ft 202 kts 177°
2026-05-04 04:11 45.65115 5.09744 3569 ft 215 kts 176°
2026-05-04 04:11 45.63587 5.09930 4224 ft 222 kts 176°
2026-05-04 04:11 45.62058 5.10309 4932 ft 231 kts 158°
2026-05-04 04:12 45.60851 5.11874 5407 ft 252 kts 121°
2026-05-04 04:12 45.60523 5.14393 6135 ft 270 kts 91°
2026-05-04 04:12 45.60715 5.17085 6917 ft 273 kts 92°
2026-05-04 04:12 45.60645 5.19781 7557 ft 272 kts 107°
2026-05-04 04:13 45.60198 5.22407 8258 ft 273 kts 113°
2026-05-04 04:13 45.59596 5.25000 8952 ft 277 kts 116°
2026-05-04 04:13 45.58936 5.27609 9665 ft 282 kts 117°
2026-05-04 04:13 45.58258 5.30268 10268 ft 291 kts 117°
2026-05-04 04:14 45.57542 5.33102 10450 ft 315 kts 116°
2026-05-04 04:14 45.56793 5.36153 10695 ft 335 kts 115°
2026-05-04 04:14 45.56039 5.39344 11240 ft 343 kts 114°
2026-05-04 04:14 45.55292 5.42599 11858 ft 348 kts 113°
2026-05-04 04:15 45.54542 5.45906 12452 ft 353 kts 113°
2026-05-04 04:15 45.53783 5.49252 13097 ft 357 kts 113°
2026-05-04 04:15 45.53006 5.52644 13708 ft 363 kts 113°
2026-05-04 04:15 45.52212 5.56088 14235 ft 368 kts 113°
2026-05-04 04:16 45.51429 5.59576 14817 ft 373 kts 109°
2026-05-04 04:16 45.50998 5.63262 15416 ft 382 kts 97°
2026-05-04 04:16 45.51084 5.67078 16008 ft 389 kts 86°
2026-05-04 04:16 45.51456 5.70919 16633 ft 392 kts 85°
2026-05-04 04:17 45.51825 5.74778 17262 ft 394 kts 85°
2026-05-04 04:17 45.52192 5.78667 17885 ft 397 kts 85°
2026-05-04 04:17 45.52559 5.82576 18460 ft 399 kts 85°
2026-05-04 04:17 45.52925 5.86517 18979 ft 402 kts 85°
2026-05-04 04:18 45.53290 5.90474 19516 ft 404 kts 85°
2026-05-04 04:18 45.53657 5.94463 20030 ft 407 kts 85°
2026-05-04 04:18 45.54026 5.98482 20541 ft 410 kts 85°
2026-05-04 04:18 45.54398 6.02535 21055 ft 414 kts 85°
2026-05-04 04:19 45.54775 6.06621 21568 ft 417 kts 85°
2026-05-04 04:19 45.55152 6.10742 22076 ft 421 kts 85°
2026-05-04 04:19 45.55523 6.14841 22559 ft 424 kts 85°
2026-05-04 04:19 45.55899 6.19031 23035 ft 427 kts 85°
2026-05-04 04:20 45.56275 6.23257 23498 ft 431 kts 85°
2026-05-04 04:20 45.56653 6.27505 23874 ft 433 kts 86°
2026-05-04 04:20 45.56762 6.31790 24274 ft 432 kts 97°
2026-05-04 04:20 45.56369 6.36027 24683 ft 430 kts 107°
2026-05-04 04:21 45.55509 6.40087 25084 ft 427 kts 116°
2026-05-04 04:21 45.54396 6.44024 25433 ft 429 kts 116°
2026-05-04 04:21 45.53279 6.47977 25794 ft 431 kts 116°
2026-05-04 04:21 45.52155 6.51957 26194 ft 434 kts 116°
2026-05-04 04:22 45.51027 6.55959 26587 ft 436 kts 116°
2026-05-04 04:22 45.49890 6.59984 26961 ft 438 kts 116°
2026-05-04 04:22 45.48745 6.64025 27312 ft 441 kts 116°
2026-05-04 04:22 45.47587 6.68079 27678 ft 443 kts 118°
2026-05-04 04:23 45.46143 6.71926 28053 ft 440 kts 128°
2026-05-04 04:23 45.44286 6.75364 28386 ft 436 kts 137°
2026-05-04 04:23 45.42082 6.78296 28685 ft 432 kts 146°
2026-05-04 04:23 45.39641 6.80783 29001 ft 433 kts 149°
2026-05-04 04:24 45.37165 6.83246 29377 ft 435 kts 149°
2026-05-04 04:24 45.34684 6.85726 29728 ft 437 kts 149°
2026-05-04 04:24 45.32197 6.88221 30058 ft 439 kts 149°
2026-05-04 04:24 45.29698 6.90730 30374 ft 441 kts 149°
2026-05-04 04:25 45.27192 6.93261 30679 ft 444 kts 147°
2026-05-04 04:25 45.24850 6.96165 30940 ft 450 kts 140°
2026-05-04 04:25 45.22606 6.99272 31252 ft 452 kts 140°
2026-05-04 04:25 45.20358 7.02382 31678 ft 451 kts 140°
2026-05-04 04:26 45.18113 7.05482 32125 ft 449 kts 140°
2026-05-04 04:26 45.15906 7.08521 32549 ft 448 kts 140°
2026-05-04 04:26 45.13670 7.11590 32956 ft 447 kts 140°
2026-05-04 04:26 45.11450 7.14661 33348 ft 447 kts 137°
2026-05-04 04:27 45.09464 7.18070 33709 ft 451 kts 129°
2026-05-04 04:27 45.07669 7.21713 34048 ft 451 kts 129°
2026-05-04 04:27 45.05873 7.25349 34375 ft 451 kts 129°
2026-05-04 04:27 45.04071 7.28975 34665 ft 451 kts 129°
2026-05-04 04:28 45.02261 7.32596 34915 ft 451 kts 130°
2026-05-04 04:28 45.00450 7.36218 35108 ft 452 kts 129°
2026-05-04 04:28 44.97192 7.43774 35088 ft 453 kts 118°
2026-05-04 04:29 44.94591 7.51869 35088 ft 452 kts 118°
2026-05-04 04:29 44.91978 7.59951 35085 ft 453 kts 118°
2026-05-04 04:30 44.89346 7.68028 35089 ft 453 kts 118°
2026-05-04 04:30 44.86729 7.76039 35092 ft 453 kts 118°
2026-05-04 04:31 44.84090 7.84106 35097 ft 453 kts 118°
2026-05-04 04:31 44.81448 7.92170 35101 ft 454 kts 118°
2026-05-04 04:32 44.78801 8.00231 35091 ft 453 kts 118°
2026-05-04 04:32 44.76136 8.08286 35088 ft 455 kts 118°
2026-05-04 04:33 44.73451 8.16358 35091 ft 455 kts 118°
2026-05-04 04:33 44.70769 8.24421 35097 ft 456 kts 118°
2026-05-04 04:34 44.68087 8.32496 35097 ft 456 kts 118°
2026-05-04 04:34 44.65396 8.40563 35103 ft 456 kts 119°
2026-05-04 04:35 44.62687 8.48624 35106 ft 457 kts 119°
2026-05-04 04:35 44.59971 8.56690 35119 ft 457 kts 119°
2026-05-04 04:36 44.57249 8.64754 35136 ft 458 kts 119°
2026-05-04 04:36 44.54522 8.72820 35125 ft 458 kts 119°
2026-05-04 04:37 44.49046 8.88938 35146 ft 458 kts 119°
2026-05-04 04:38 44.46299 8.96984 35150 ft 458 kts 119°
2026-05-04 04:38 44.43544 9.05028 35147 ft 458 kts 119°
2026-05-04 04:39 44.41405 9.13472 35146 ft 463 kts 108°
2026-05-04 04:39 44.39698 9.22109 35134 ft 463 kts 109°
2026-05-04 04:40 44.37960 9.30775 35153 ft 464 kts 109°
2026-05-04 04:40 44.36208 9.39457 35160 ft 464 kts 109°
2026-05-04 04:41 44.34456 9.48132 35139 ft 463 kts 108°
2026-05-04 04:41 44.32653 9.56769 35144 ft 462 kts 113°
2026-05-04 04:42 44.29678 9.64589 35148 ft 454 kts 128°
2026-05-04 04:42 44.26126 9.71907 35154 ft 455 kts 127°
2026-05-04 04:43 44.22585 9.79232 35156 ft 456 kts 127°
2026-05-04 04:43 44.19039 9.86543 35147 ft 456 kts 127°
2026-05-04 04:44 44.15478 9.93859 35135 ft 456 kts 127°
2026-05-04 04:44 44.11906 10.01176 35141 ft 457 kts 127°
2026-05-04 04:45 44.08328 10.08477 35145 ft 457 kts 127°
2026-05-04 04:47 43.99933 10.37991 35194 ft 486 kts 111°
2026-05-04 04:47 43.97706 10.46879 35188 ft 487 kts 111°
2026-05-04 04:48 43.95479 10.55701 35188 ft 487 kts 111°
2026-05-04 04:49 43.89837 10.77921 35185 ft 489 kts 111°
2026-05-04 04:49 43.87573 10.86820 35189 ft 490 kts 112°
2026-05-04 04:50 43.85292 10.95704 35185 ft 490 kts 112°
2026-05-04 04:50 43.83003 11.04592 35191 ft 490 kts 112°
2026-05-04 04:51 43.80707 11.13478 35191 ft 490 kts 112°
2026-05-04 04:51 43.78410 11.22356 35194 ft 490 kts 112°
2026-05-04 04:52 43.76104 11.31221 35188 ft 490 kts 112°
2026-05-04 04:52 43.73794 11.40072 35188 ft 489 kts 112°
2026-05-04 04:53 43.71475 11.48904 35195 ft 489 kts 112°
2026-05-04 04:53 43.69545 11.56244 35194 ft 488 kts 112°
2026-05-04 04:54 43.67218 11.65055 35196 ft 488 kts 112°
2026-05-04 04:54 43.64883 11.73862 35194 ft 488 kts 112°
2026-05-04 04:55 43.62546 11.82668 35197 ft 488 kts 112°
2026-05-04 04:55 43.60200 11.91468 35196 ft 488 kts 112°
2026-05-04 04:56 43.57844 12.00251 35200 ft 488 kts 112°
2026-05-04 04:56 43.55485 12.09022 35191 ft 488 kts 112°
2026-05-04 04:57 43.53118 12.17786 35196 ft 488 kts 112°
2026-05-04 04:57 43.50745 12.26558 35193 ft 488 kts 112°
2026-05-04 04:58 43.48369 12.35318 35191 ft 488 kts 112°
2026-05-04 04:58 43.45986 12.44068 35191 ft 488 kts 112°
2026-05-04 04:59 43.43591 12.52811 35185 ft 489 kts 112°
2026-05-04 04:59 43.41200 12.61498 35186 ft 489 kts 112°
2026-05-04 05:00 43.38775 12.70299 35185 ft 489 kts 112°
2026-05-04 05:01 43.35163 12.83351 35174 ft 489 kts 112°
2026-05-04 05:01 43.32733 12.92087 35175 ft 490 kts 112°
2026-05-04 05:02 43.30285 13.00826 35176 ft 490 kts 112°
2026-05-04 05:02 43.28243 13.09757 35170 ft 491 kts 107°
2026-05-04 05:03 43.26400 13.18776 35163 ft 491 kts 106°
2026-05-04 05:04 43.22678 13.36803 35154 ft 491 kts 107°
2026-05-04 05:04 43.20806 13.45817 35156 ft 491 kts 107°
2026-05-04 05:06 43.13250 13.81723 35148 ft 491 kts 107°
2026-05-04 05:07 43.11345 13.90694 35147 ft 491 kts 106°
2026-05-04 05:07 43.09433 13.99670 35144 ft 491 kts 106°
2026-05-04 05:09 43.00719 14.39986 35143 ft 492 kts 106°
2026-05-04 05:10 42.98771 14.48949 35139 ft 492 kts 106°
2026-05-04 05:10 42.96806 14.57903 35140 ft 492 kts 106°
2026-05-04 05:11 42.94829 14.66851 35145 ft 492 kts 106°
2026-05-04 05:11 42.92853 14.75798 35145 ft 492 kts 106°
2026-05-04 05:12 42.90870 14.84741 35145 ft 492 kts 107°
2026-05-04 05:12 42.88874 14.93677 35151 ft 493 kts 106°
2026-05-04 05:13 42.86870 15.02612 35142 ft 493 kts 106°
2026-05-04 05:13 42.84861 15.11548 35147 ft 493 kts 106°
2026-05-04 05:14 42.82841 15.20482 35145 ft 494 kts 106°
2026-05-04 05:14 42.80815 15.29418 35157 ft 494 kts 106°
2026-05-04 05:15 42.78783 15.38353 35153 ft 494 kts 106°
2026-05-04 05:15 42.76739 15.47284 35147 ft 494 kts 106°
2026-05-04 05:16 42.74682 15.56219 35149 ft 495 kts 106°
2026-05-04 05:16 42.72639 15.65096 35163 ft 495 kts 105°
2026-05-04 05:17 42.70563 15.74090 35156 ft 495 kts 106°
2026-05-04 05:17 42.68447 15.83009 35153 ft 496 kts 107°
2026-05-04 05:18 42.66285 15.91843 35155 ft 496 kts 107°
2026-05-04 05:18 42.64093 16.00734 35170 ft 496 kts 107°
2026-05-04 05:19 42.61917 16.09629 35163 ft 497 kts 106°
2026-05-04 05:19 42.59737 16.18531 35158 ft 497 kts 107°
2026-05-04 05:20 42.57550 16.27428 35156 ft 497 kts 107°
2026-05-04 05:20 42.55352 16.36318 35169 ft 497 kts 106°
2026-05-04 05:21 42.53145 16.45214 35157 ft 498 kts 106°
2026-05-04 05:21 42.50930 16.54118 35153 ft 498 kts 106°
2026-05-04 05:22 42.48697 16.63011 35152 ft 499 kts 106°
2026-05-04 05:22 42.46463 16.71913 35170 ft 499 kts 106°
2026-05-04 05:23 42.44219 16.80816 35165 ft 500 kts 106°
2026-05-04 05:23 42.41962 16.89709 35150 ft 500 kts 106°
2026-05-04 05:24 42.39707 16.98608 35161 ft 500 kts 106°
2026-05-04 05:24 42.37448 17.07502 35185 ft 500 kts 105°
2026-05-04 05:25 42.35169 17.16385 35166 ft 500 kts 106°
2026-05-04 05:25 42.32882 17.25262 35172 ft 500 kts 106°
2026-05-04 05:26 42.30601 17.34129 35170 ft 500 kts 106°
2026-05-04 05:26 42.28326 17.42931 35187 ft 500 kts 105°
2026-05-04 05:28 42.14890 17.75315 34610 ft 483 kts 122°
2026-05-04 05:29 42.12983 17.79017 34349 ft 479 kts 121°
2026-05-04 05:29 42.11088 17.82701 33786 ft 478 kts 121°
2026-05-04 05:29 42.09199 17.86373 33274 ft 475 kts 121°
2026-05-04 05:29 42.07318 17.90024 32726 ft 473 kts 121°
2026-05-04 05:31 41.94385 18.14987 29015 ft 454 kts 121°
2026-05-04 05:31 41.92583 18.18448 28518 ft 450 kts 121°
2026-05-04 05:32 41.90793 18.21876 28035 ft 446 kts 121°
2026-05-04 05:32 41.89022 18.25264 27552 ft 442 kts 121°
2026-05-04 05:32 41.87267 18.28625 27091 ft 438 kts 121°
2026-05-04 05:33 41.83824 18.35210 26203 ft 430 kts 121°
2026-05-04 05:33 41.82107 18.38482 25747 ft 427 kts 121°
2026-05-04 05:33 41.80402 18.41730 25301 ft 425 kts 122°
2026-05-04 05:33 41.78707 18.44958 24848 ft 423 kts 121°
2026-05-04 05:34 41.77017 18.48172 24387 ft 421 kts 121°
2026-05-04 05:34 41.75337 18.51367 23932 ft 419 kts 122°
2026-05-04 05:34 41.73660 18.54553 23412 ft 417 kts 122°
2026-05-04 05:34 41.71994 18.57717 22942 ft 414 kts 122°
2026-05-04 05:35 41.70343 18.60842 22473 ft 411 kts 122°
2026-05-04 05:35 41.68700 18.63945 22047 ft 406 kts 121°
2026-05-04 05:35 41.67068 18.67022 21584 ft 403 kts 121°
2026-05-04 05:35 41.65449 18.70072 21079 ft 401 kts 121°
2026-05-04 05:36 41.63846 18.73093 20601 ft 398 kts 121°
2026-05-04 05:36 41.62255 18.76092 20226 ft 392 kts 121°
2026-05-04 05:36 41.60677 18.79067 19707 ft 391 kts 121°
2026-05-04 05:36 41.59113 18.82007 19319 ft 386 kts 121°
2026-05-04 05:37 41.57559 18.84923 18828 ft 384 kts 121°
2026-05-04 05:37 41.56016 18.87813 18360 ft 381 kts 121°
2026-05-04 05:37 41.54482 18.90684 17868 ft 377 kts 121°
2026-05-04 05:38 41.51460 18.96338 16848 ft 371 kts 121°
2026-05-04 05:38 41.49968 18.99132 16321 ft 369 kts 121°
2026-05-04 05:38 41.48484 19.01906 15875 ft 365 kts 121°
2026-05-04 05:38 41.47018 19.04641 15434 ft 361 kts 121°
2026-05-04 05:39 41.45566 19.07349 14989 ft 357 kts 121°
2026-05-04 05:39 41.42700 19.12680 14136 ft 351 kts 121°
2026-05-04 05:39 41.41287 19.15316 13671 ft 348 kts 120°
2026-05-04 05:40 41.38513 19.20468 12817 ft 340 kts 121°
2026-05-04 05:40 41.37139 19.23010 12402 ft 336 kts 121°
2026-05-04 05:40 41.35781 19.25524 11996 ft 333 kts 121°
2026-05-04 05:41 41.34434 19.28016 11589 ft 330 kts 121°
2026-05-04 05:41 41.33102 19.30486 11186 ft 327 kts 122°
2026-05-04 05:41 41.31783 19.32933 10769 ft 324 kts 122°
2026-05-04 05:41 41.30472 19.35361 10374 ft 322 kts 122°
2026-05-04 05:42 41.29168 19.37769 10084 ft 316 kts 122°
2026-05-04 05:42 41.27905 19.40095 9945 ft 305 kts 122°
2026-05-04 05:42 41.26675 19.42357 9621 ft 300 kts 122°
2026-05-04 05:42 41.25455 19.44604 9227 ft 299 kts 122°
2026-05-04 05:43 41.24650 19.46085 8978 ft 298 kts 122°
2026-05-04 05:43 41.23439 19.48309 8613 ft 296 kts 122°
2026-05-04 05:43 41.22234 19.50518 8248 ft 294 kts 123°
2026-05-04 05:45 41.17678 19.65778 5686 ft 231 kts 81°
2026-05-04 05:45 41.17844 19.67902 5380 ft 231 kts 82°
2026-05-04 05:47 41.24490 19.74315 3387 ft 206 kts 353°
2026-05-04 05:47 41.25916 19.74125 3102 ft 206 kts 353°
2026-05-04 05:47 41.27343 19.73934 2849 ft 206 kts 354°
2026-05-04 05:48 41.28760 19.73743 2630 ft 200 kts 354°
2026-05-04 05:48 41.30099 19.73566 2366 ft 186 kts 354°
2026-05-04 05:48 41.31335 19.73404 2142 ft 170 kts 354°
2026-05-04 05:48 41.32449 19.73260 1939 ft 154 kts 354°
2026-05-04 05:49 41.33496 19.73122 1692 ft 148 kts 355°
2026-05-04 05:49 41.34517 19.72987 1465 ft 147 kts 355°
2026-05-04 05:49 41.35527 19.72850 1229 ft 145 kts 355°
2026-05-04 05:49 41.36533 19.72716 997 ft 145 kts 355°
2026-05-04 05:51 41.42211 19.71954 119 ft 24 kts 353°
2026-05-04 05:51 41.42306 19.71913 118 ft 8 kts 253°
2026-05-04 05:52 41.42296 19.71878 119 ft 1 kts 275°
2026-05-04 05:52 41.42284 19.71795 120 ft 14 kts 262°
2026-05-04 05:52 41.42269 19.71664 119 ft 13 kts 262°
2026-05-04 05:52 41.42263 19.71606 120 ft 0 kts 262°
2026-05-04 05:53 41.42262 19.71597 117 ft 3 kts 262°
2026-05-04 05:54 41.42002 19.71569 121 ft 5 kts 192°
2026-05-04 05:55 41.41988 19.71536 122 ft 4 kts 267°
2026-05-04 05:55 41.41988 19.71511 119 ft 2 kts 265°